SL-8 R/B

Satellite information

Favourite Embed

Satellite Type and Status

ROCKET BODYIN ORBIT

Key statistics

Satellite SL-8 R/B at a glance.

Uptime

17372

Days in orbit

Revolutions

≈ 13.8

Per day

Orbit

LEO

Low Earth Orbit

Inclination

82.9

Latest

Satellite identification and parameters

Extended collection of information and parameters for SL-8 R/B.

Object identification

Identified? True

Debris? False

Object name: SL-8 R/B

International designator: 1978-053B

Object number (NORAD): 10918

Object ID (CCSDS): 10918

Country: COMMONWEALTH OF INDEPENDENT STATES (CIS)

Current information (Y/N): Y

RCS size: LARGE

Orbital parameters

Period: 104.532 minutes

Inclination: 82.9139 deg

SMA: 7350.652 km

Apoapsis: 994.213 km

Periapsis: 950.82 km

RAAN: 173.1562 deg

Eccentricy: 0.00295167

Argument of periapsis: 332.4903 deg

Mean anomaly: 201.0252 deg

Mean motion: 13.77571008 rev/day

Mean motion (dot): 0.0000005 rev/day2

B* drag term: 0.000034983163 1/REarth

Two-line elements (TLE)

Creation date: Dec. 12, 2025, 10:14 a.m.

Reference frame: TEME

Reference center: EARTH

Epoch: Dec. 12, 2025, 6:39 a.m. UTC

TLE line 0: 0 SL-8 R/B

TLE line 1: 1 10918U 78053B 25346.27738124 .00000050 00000-0 34983-4 0 9992

TLE line 2: 2 10918 82.9139 173.1562 0029517 332.4903 201.0252 13.77571008389333

Live tracking on map

Real-time ground track for satellite SL-8 R/B.

In-orbit conjunctions

A list of the most updated potential collisions computed for object SL-8 R/B.

Target Orbit TCA Probability of collision Miss distance Type
COSMOS 970 DEB LEO 2024-11-10 02:49:09 0.0004738602 638.0 (m) DEBRIS
SL-14 DEB LEO 2024-10-08 12:01:43 0.0005333437 216.0 (m) DEBRIS

Associated space launch

Film-return reconnaissance satellite

SL-8 R/B was lifted into orbit during the mission ‘Soyuz U | Zenit-4MKT 6’, on board a Soyuz U space rocket.

The launch took place on May 23, 1978, 7:30 a.m. from 43/4 (43R).

For more information about the launch, click the button.

Launch to space Soyuz U | Zenit-4MKT 6
Soyuz U | Zenit-4MKT 6

Agency: N/A

Status: Launch Successful

Launch date: May 23, 1978, 7:30 a.m. UTC

Rocket: Soyuz U

Launch pad: 43/4 (43R)

Location: Plesetsk Cosmodrome, Russian Federation

...

Latest news about this satellite

There are no fresh news available about this satellite. Check back as we update our databases every day.


Newsletter sign-up

Weekly statistics, charts and insights to help you stay on top of the space industry.